Hourly Data Report for October 06, 2014

All times are specified in Local Standard Time (LST). Add 1 hour to adjust for Daylight Saving Time where and when it is observed.

MONCTON INTL A
NEW BRUNSWICK

46°06'44.000" N
64°40'43.000" W
70.70 m
8103201
71705
YQM

Download Data

Hourly Data (October 2014)
Hourly Data Report for October 6, 2014
Temp Definition
°C
Dew Point Temp Definition
°C
Rel Hum Definition
%
Wind Dir Definition
10's deg

Wind Spd Definition
km/h
Visibility Definition
km
Stn Press Definition
kPa
Hmdx Definition


Wind Chill Definition


Weather Definition


TIME
00:00 Legend Double Dagger 10.6 10.0 96 23 17 24.1 100.07     LegendNANA
01:00 Legend Double Dagger 11.0 10.4 96 23 15 24.1 100.13     LegendNANA
02:00 Legend Double Dagger 10.9 10.0 94 24 17 24.1 100.24     Cloudy
03:00 Legend Double Dagger 10.0 9.1 94 25 19 24.1 100.32     LegendNANA
04:00 Legend Double Dagger 8.7 8.0 95 25 15 24.1 100.38     LegendNANA
05:00 Legend Double Dagger 7.6 6.7 94 24 12 24.1 100.48     Clear
06:00 Legend Double Dagger 6.2 5.3 94 21 13 24.1 100.57     LegendNANA
07:00 Legend Double Dagger 6.2 5.2 93 21 15 24.1 100.69     LegendNANA
08:00 Legend Double Dagger 7.8 5.5 85 22 17 24.1 100.78     Clear
09:00 Legend Double Dagger 9.3 6.2 81 22 15 24.1 100.88     LegendNANA
10:00 Legend Double Dagger 11.3 6.9 74 22 14 24.1 100.94     LegendNANA
11:00 Legend Double Dagger 13.1 6.5 64 23 16 24.1 100.98     Clear
12:00 Legend Double Dagger 15.0 5.0 51 23 21 24.1 101.03     LegendNANA
13:00 Legend Double Dagger 15.8 4.3 46 24 21 24.1 101.04     LegendNANA
14:00 Legend Double Dagger 16.5 4.6 45 25 17 24.1 101.04     Mainly Clear
15:00 Legend Double Dagger 16.5 4.0 43 25 22 24.1 101.10     LegendNANA
16:00 Legend Double Dagger 16.2 3.0 41 24 22 24.1 101.13     LegendNANA
17:00 Legend Double Dagger 15.2 3.7 46 25 14 24.1 101.19     Clear
18:00 Legend Double Dagger 13.9 3.4 49 24 5 24.1 101.27     LegendNANA
19:00 Legend Double Dagger 10.6 6.2 74 16 8 24.1 101.33     LegendNANA
20:00 Legend Double Dagger 9.7 4.9 72 23 5 24.1 101.37     Clear
21:00 Legend Double Dagger 8.1 5.1 81 15 3 24.1 101.41     LegendNANA
22:00 Legend Double Dagger 9.0 4.3 72 20 9 24.1 101.50     LegendNANA
23:00 Legend Double Dagger 8.2 4.6 78 19 8 24.1 101.54     Clear

Notes on Data Quality.

Legend

  • E = Estimated
  • M = Missing
  • NA = Not Available
  • ‡ = Partner data that is not subject to review by the National Climate Archives
Date modified: